Location: Memmingen
(47.9830°N, 10.1733°E)
Time: 07:47:21
(UTC+02:00)

ISS - Visible Passes

Search period start: 09 May 2021 00:00
Search period end: 19 May 2021 00:00
Orbit: 418 x 421 km, 51.6° (Epoch: 08 May)

Date Brightness Start Highest point End Pass type
(mag) Time Alt. Az. Time Alt. Az. Time Alt. Az.
09 May -1.9 02:03:26 27° ENE 02:03:26 27° ENE 02:05:06 10° ENE visible
09 May -2.6 03:36:22 16° WNW 03:38:46 43° N 03:42:01 10° ENE visible
10 May -0.9 01:17:27 11° ENE 01:17:27 11° ENE 01:17:39 10° ENE visible
10 May -2.8 02:50:22 36° NW 02:51:14 46° N 02:54:31 10° ENE visible
10 May -2.9 04:25:05 10° WNW 04:28:24 51° NNE 04:31:43 10° E visible
11 May -2.7 02:04:21 45° NNE 02:04:21 45° NNE 02:07:03 10° ENE visible
11 May -2.6 03:37:37 10° WNW 03:40:53 45° N 03:44:10 10° E visible
12 May -1.6 01:18:16 22° ENE 01:18:16 22° ENE 01:19:37 10° ENE visible
12 May -2.5 02:51:12 18° WNW 02:53:22 42° N 02:56:37 10° ENE visible
12 May -3.7 04:27:03 10° WNW 04:30:26 80° NNE 04:33:49 10° ESE visible
13 May -0.9 00:32:06 10° ENE 00:32:06 10° ENE 00:32:10 10° ENE visible
13 May -2.6 02:05:02 35° NW 02:05:50 43° N 02:09:05 10° ENE visible
13 May -3.3 03:39:37 10° WNW 03:42:58 62° NNE 03:46:20 10° E visible
14 May -2.7 01:18:38 44° NNE 01:18:38 44° NNE 01:21:35 10° ENE visible
14 May -2.9 02:52:10 10° WNW 02:55:28 51° NNE 02:58:47 10° E visible
14 May -3.6 04:29:02 10° WNW 04:32:20 50° SSW 04:35:37 10° SE visible
14 May -3.5 22:50:45 10° SW 22:53:59 44° SSE 22:55:39 24° E visible
15 May -3.0 00:27:28 10° W 00:30:46 54° NNW 00:34:07 10° ENE visible
15 May -2.6 02:04:40 10° WNW 02:07:57 45° N 02:11:14 10° E visible
15 May -3.9 03:41:33 10° WNW 03:44:56 74° SSW 03:48:18 10° ESE visible
15 May -2.9 22:03:40 10° SSW 22:06:39 29° SE 22:09:37 10° E visible
15 May -3.5 23:39:56 10° WSW 23:43:17 67° NNW 23:46:40 10° ENE visible
16 May -2.5 01:17:10 10° WNW 01:20:25 42° N 01:23:40 10° ENE visible
16 May -3.7 02:54:06 10° WNW 02:57:29 81° NNE 03:00:53 10° ESE visible
16 May -2.5 04:31:19 10° W 04:34:01 22° SW 04:36:43 10° SSE visible
16 May -3.8 22:52:27 10° WSW 22:55:49 88° NW 22:59:13 10° ENE visible
17 May -2.5 00:29:37 10° WNW 00:32:53 43° N 00:36:08 10° ENE visible
17 May -3.3 02:06:39 10° WNW 02:10:01 62° NNE 02:13:22 10° E visible
17 May -3.1 03:43:37 10° WNW 03:46:43 33° SW 03:49:47 10° SSE visible
17 May -3.8 22:05:04 10° SW 22:08:24 66° SSE 22:11:45 10° ENE visible
17 May -2.7 23:42:04 10° W 23:45:20 46° N 23:48:37 10° ENE visible
18 May -2.9 01:19:12 10° WNW 01:22:30 51° NNE 01:22:56 47° NE visible
18 May -3.0 22:54:30 10° W 22:57:49 54° NNW 23:01:09 10° ENE visible
